Tioga Municipal Airport, ND

3:35 PM CDT on September 18, 2019 (GMT -0500)
Tioga Municipal Airport

Weather History for KD60 - August, 2019

Change the Weather History Date:

Wednesday, August 21, 2019

  Actual Average (WUND) Record (WUND)
Temperature  
Mean Temperature 58 °F -  
Max Temperature 75 °F - - (-1)
Min Temperature 41 °F - - (-1)
Degree Days  
Heating Degree Days 7    
Growing Degree Days 8 (Base 50)    
Moisture  
Dew Point 47 °F    
Average Humidity 73    
Maximum Humidity 100    
Minimum Humidity 31    
Precipitation  
Precipitation 0.00 in - - ()
Sea Level Pressure  
Sea Level Pressure 30.15 in    
Wind  
Wind Speed 2 mph (ESE)    
Max Wind Speed 12 mph    
Max Gust Speed 21 mph    
Visibility 10 miles    
Events      
Averages and records for this station are not official NWS values.
T = Trace of Precipitation, MM = Missing Value Source: NWS Daily Summary

Daily Weather History Graph

Daily Weather History Graph

Search for Another Location

Airport or City:

Astronomy

Aug. 21, 2019 Rise Set
Actual Time 6:53 AM CDT 8:54 PM CDT
Civil Twilight 6:19 AM CDT 9:28 PM CDT
Nautical Twilight 5:38 AM CDT 10:10 PM CDT
Astronomical Twilight 4:51 AM CDT 10:56 PM CDT
Moon 11:45 PM CDT (8/21) 12:57 PM CDT (8/21)
Length of Visible Light 15h 08m
Length of Day
14h 01m
Waning Gibbous, 69% of the Moon is Illuminated
Aug 21
Waning Gibbous
Aug 23
Last Quarter
Aug 30
New
Sep 5
First Quarter
Sep 13
Full

Hourly Weather History & Observations

Time (CDT) Temp. Dew Point Humidity Pressure Visibility Wind Dir Wind Speed Gust Speed Precip Events Conditions
12:15 AM 51.8 °F 51.8 °F 100% 30.23 in 10.0 mi Calm Calm - N/A   Partly Cloudy
12:35 AM 51.8 °F 51.8 °F 100% 30.23 in 10.0 mi Calm Calm - N/A   Partly Cloudy
12:55 AM 51.8 °F 51.8 °F 100% 30.22 in 10.0 mi Calm Calm - N/A   Clear
1:15 AM 51.8 °F 50.0 °F 94% 30.22 in 10.0 mi Calm Calm - N/A   Clear
1:35 AM 50.0 °F 48.2 °F 94% 30.22 in 10.0 mi Calm Calm - N/A   Clear
1:55 AM 48.2 °F 48.2 °F 100% 30.22 in 10.0 mi Calm Calm - N/A   Clear
2:15 AM 48.2 °F 48.2 °F 100% 30.22 in 10.0 mi Calm Calm - N/A   Clear
2:35 AM 46.4 °F 46.4 °F 100% 30.22 in 10.0 mi Calm Calm - N/A   Partly Cloudy
2:55 AM 46.4 °F 46.4 °F 100% 30.21 in 10.0 mi Calm Calm - N/A   Partly Cloudy
3:15 AM 44.6 °F 44.6 °F 100% 30.20 in 10.0 mi Calm Calm - N/A   Clear
3:35 AM 44.6 °F 44.6 °F 100% 30.19 in 10.0 mi Calm Calm - N/A   Clear
3:55 AM 42.8 °F 42.8 °F 100% 30.19 in 10.0 mi Calm Calm - N/A   Clear
4:15 AM 44.6 °F 44.6 °F 100% 30.18 in 10.0 mi Calm Calm - N/A   Clear
4:35 AM 44.6 °F 44.6 °F 100% 30.18 in 10.0 mi Calm Calm - N/A   Clear
4:55 AM 44.6 °F 44.6 °F 100% 30.18 in 10.0 mi Calm Calm - N/A   Clear
5:15 AM 44.6 °F 44.6 °F 100% 30.18 in 10.0 mi Calm Calm - N/A   Clear
5:35 AM 42.8 °F 42.8 °F 100% 30.18 in 10.0 mi Calm Calm - N/A   Clear
5:55 AM 42.8 °F 42.8 °F 100% 30.17 in 10.0 mi Calm Calm - N/A   Clear
6:15 AM 44.6 °F 44.6 °F 100% 30.18 in 10.0 mi Calm Calm - N/A   Clear
6:35 AM 42.8 °F 42.8 °F 100% 30.18 in 10.0 mi Calm Calm - N/A   Clear
7:15 AM 41.0 °F 41.0 °F 100% 30.19 in 10.0 mi Calm Calm - N/A   Clear
7:35 AM 42.8 °F 42.8 °F 100% 30.20 in 10.0 mi Calm Calm - N/A   Clear
7:55 AM 44.6 °F 44.6 °F 100% 30.21 in 10.0 mi Calm Calm - N/A   Clear
8:15 AM 48.2 °F 48.2 °F 100% 30.22 in 10.0 mi Calm Calm - N/A   Clear
8:35 AM 50.0 °F 50.0 °F 100% 30.21 in 8.0 mi Calm Calm - N/A   Clear
8:55 AM 53.6 °F 53.6 °F 100% 30.22 in 10.0 mi Calm Calm - N/A   Clear
9:15 AM 55.4 °F 53.6 °F 94% 30.22 in 10.0 mi Calm Calm - N/A   Clear
9:35 AM 57.2 °F 51.8 °F 82% 30.22 in 10.0 mi Calm Calm - N/A   Clear
9:55 AM 60.8 °F 50.0 °F 68% 30.22 in 10.0 mi SE 5.8 mph - N/A   Clear
10:15 AM 62.6 °F 50.0 °F 63% 30.22 in 10.0 mi Variable 4.6 mph - N/A   Clear
10:35 AM 64.4 °F 48.2 °F 56% 30.22 in 10.0 mi ESE 4.6 mph - N/A   Clear
10:55 AM 66.2 °F 48.2 °F 52% 30.21 in 10.0 mi East 4.6 mph 11.5 mph N/A   Clear
11:15 AM 66.2 °F 46.4 °F 49% 30.22 in 10.0 mi Calm Calm - N/A   Clear
11:35 AM 68.0 °F 46.4 °F 46% 30.22 in 10.0 mi East 6.9 mph - N/A   Clear
11:55 AM 69.8 °F 44.6 °F 40% 30.22 in 6.0 mi SSE 9.2 mph - N/A   Haze
12:15 PM - - N/A% - - North - - N/A   Unknown
12:35 PM - - N/A% - - North - - N/A   Unknown
12:55 PM - - N/A% - - North - - N/A   Unknown
2:35 PM 71.6 °F 42.8 °F 35% 30.16 in 10.0 mi Variable 3.5 mph - N/A   Unknown
2:55 PM 73.4 °F 44.6 °F 36% 30.15 in 10.0 mi South 8.1 mph 20.7 mph N/A   Clear
3:15 PM 73.4 °F 44.6 °F 36% 30.15 in 10.0 mi South 5.8 mph - N/A   Clear
3:35 PM 73.4 °F 44.6 °F 36% 30.14 in 10.0 mi South 5.8 mph 13.8 mph N/A   Clear
3:55 PM 75.2 °F 42.8 °F 31% 30.13 in 10.0 mi Variable 5.8 mph - N/A   Clear
4:15 PM 75.2 °F 42.8 °F 31% 30.12 in 10.0 mi Variable 5.8 mph - N/A   Clear
4:35 PM 73.4 °F 42.8 °F 33% 30.11 in 10.0 mi Calm Calm - N/A   Clear
4:55 PM 75.2 °F 44.6 °F 34% 30.11 in 10.0 mi Variable 4.6 mph - N/A   Clear
5:15 PM 75.2 °F 44.6 °F 34% 30.10 in 10.0 mi ESE 6.9 mph 18.4 mph N/A   Clear
5:35 PM 75.2 °F 44.6 °F 34% 30.09 in 10.0 mi East 6.9 mph 13.8 mph N/A   Clear
5:55 PM 75.2 °F 44.6 °F 34% 30.09 in 10.0 mi East 10.4 mph - N/A   Clear
6:15 PM 75.2 °F 44.6 °F 34% 30.08 in 10.0 mi East 9.2 mph - N/A   Clear
6:35 PM 73.4 °F 44.6 °F 36% 30.08 in 10.0 mi East 10.4 mph - N/A   Clear
6:55 PM 73.4 °F 46.4 °F 38% 30.07 in 10.0 mi East 11.5 mph - N/A   Clear
7:15 PM 73.4 °F 48.2 °F 41% 30.07 in 10.0 mi East 10.4 mph - N/A   Clear
7:35 PM 71.6 °F 48.2 °F 43% 30.06 in 10.0 mi East 11.5 mph - N/A   Clear
7:55 PM 69.8 °F 50.0 °F 49% 30.06 in 10.0 mi East 9.2 mph - N/A   Clear
8:15 PM 68.0 °F 50.0 °F 52% 30.06 in 10.0 mi ESE 9.2 mph - N/A   Clear
8:35 PM 64.4 °F 50.0 °F 59% 30.07 in 10.0 mi ESE 6.9 mph - N/A   Clear
8:55 PM 62.6 °F 50.0 °F 63% 30.07 in 10.0 mi East 6.9 mph - N/A   Clear
9:15 PM 60.8 °F 50.0 °F 68% 30.07 in 10.0 mi ESE 8.1 mph - N/A   Clear
9:35 PM 59.0 °F 50.0 °F 72% 30.07 in 10.0 mi East 9.2 mph - N/A   Clear
9:55 PM 57.2 °F 51.8 °F 82% 30.07 in 10.0 mi ESE 8.1 mph - N/A   Clear
10:15 PM 57.2 °F 50.0 °F 77% 30.07 in 10.0 mi ESE 8.1 mph - N/A   Clear
10:35 PM 55.4 °F 50.0 °F 82% 30.07 in 10.0 mi East 6.9 mph - N/A   Clear
10:55 PM 55.4 °F 50.0 °F 82% 30.08 in 10.0 mi East 6.9 mph - N/A   Clear
11:15 PM 53.6 °F 51.8 °F 94% 30.08 in 10.0 mi East 11.5 mph - N/A   Clear
11:35 PM 53.6 °F 51.8 °F 94% 30.07 in 10.0 mi East 9.2 mph - N/A   Clear
11:55 PM 53.6 °F 51.8 °F 94% 30.08 in 10.0 mi ESE 10.4 mph - N/A   Clear